Theta_e
344 345 345 346 346 345 346 345 345 346 348 348 346 346 348 349 350 349 347 346 347 344 347 344 344 346 344 343 343 343 343 338 332 339 345 343 335 330 328 327 325 324 326
344 346 346 346 346 346 347 345 343 341 347 347 347 344 345 347 347 347 347 347 345 344 344 344 344 350 346 346 343 343 343 342 335 333 338 342 336 329 326 325 322 324 324
343 343 344 343 345 345 346 346 345 343 343 349 346 345 343 345 347 347 347 348 347 348 348 346 346 346 343 344 345 344 343 345 342 339 336 339 339 332 327 327 320 316 321
337 339 339 342 344 347 348 347 346 347 347 347 348 347 347 347 349 349 349 350 347 349 350 349 348 346 345 345 347 343 344 342 341 340 337 335 338 338 333 321 318 319 314
335 333 334 338 341 345 346 346 348 348 349 349 348 348 350 351 351 348 349 349 348 348 350 350 350 349 345 344 347 343 342 340 340 339 337 336 335 339 335 331 322 319 317
334 334 335 332 334 341 345 347 346 347 347 348 347 347 347 351 343 340 347 348 348 347 346 347 348 345 342 338 339 338 341 341 337 340 337 335 334 336 338 336 328 322 321
335 337 337 334 332 338 345 343 344 343 344 344 346 347 347 347 337 337 343 344 345 345 346 345 345 352 343 338 334 331 326 327 333 337 338 336 337 336 335 335 335 333 331
333 336 334 334 334 337 341 340 343 343 344 343 344 346 345 345 331 331 337 341 343 344 345 345 345 345 342 339 333 322 316 318 324 325 322 316 316 317 325 333 335 327 317
336 335 334 335 337 337 339 338 338 340 340 341 342 341 341 329 324 323 330 340 343 341 337 331 338 337 328 331 334 315 313 311 315 316 316 315 315 316 318 328 322 320 313
333 336 339 340 339 339 339 339 339 340 339 336 333 333 327 324 320 318 325 333 335 335 323 322 322 327 323 324 331 317 311 311 310 309 309 309 309 311 314 311 312 318 310
335 337 335 337 336 334 333 333 333 333 334 330 327 327 324 323 320 318 318 330 333 333 325 320 317 314 314 319 323 321 315 314 313 313 313 311 310 310 310 310 312 314 311
336 335 335 334 332 331 329 328 327 327 327 326 324 321 321 317 314 313 314 317 326 326 319 314 312 309 308 310 313 311 313 317 317 315 313 310 308 307 309 310 310 311 313
333 331 330 329 329 329 326 325 324 324 323 322 321 318 317 317 314 312 312 314 317 317 316 313 311 309 310 313 314 315 317 317 316 313 310 307 309 310 311 311 311 311 311
329 325 322 318 315 315 316 318 319 321 321 320 319 317 317 316 316 316 314 314 315 315 315 315 314 314 314 315 316 317 317 317 315 311 310 310 309 310 309 310 309 309 308
323 320 317 313 310 304 301 304 303 300 306 320 319 318 314 312 311 308 311 313 313 311 313 315 314 314 313 313 314 315 315 314 311 310 309 306 306 307 307 307 307 308 308
319 318 316 313 310 307 303 301 300 300 299 298 300 306 305 302 300 299 299 300 303 306 312 312 310 311 310 311 311 311 312 311 309 306 304 303 304 303 304 304 305 305 306
317 315 312 312 313 310 308 306 302 301 299 297 297 297 299 301 297 297 298 300 303 307 310 309 309 309 309 309 309 308 307 308 305 304 305 302 304 304 301 301 303 302 302
318 314 318 316 316 315 313 310 309 308 306 304 298 299 297 297 297 297 297 303 308 309 310 309 308 307 306 306 306 305 303 302 301 301 303 302 301 299 300 300 301 300 301
315 314 315 314 313 313 314 312 307 304 303 300 297 297 297 296 296 295 298 307 307 307 307 307 306 306 304 301 300 300 298 298 298 299 299 299 299 298 299 297 297 299 300
312 317 315 314 313 313 312 310 307 304 303 301 299 298 296 300 304 305 305 305 307 308 309 307 306 304 302 300 299 298 298 297 297 297 296 297 297 298 298 295 293 295 297
309 306 316 311 311 312 313 313 313 310 307 305 303 301 297 299 300 300 301 304 306 308 309 308 305 303 302 301 300 300 299 298 296 297 299 300 297 297 298 297 298 297 297
312 307 307 305 306 306 305 307 313 313 311 310 308 304 297 299 303 304 304 305 306 308 309 308 306 305 304 302 303 302 300 299 298 299 299 297 296 295 295 294 294 294 293
312 310 310 309 310 308 306 306 304 304 306 307 306 304 300 300 301 303 305 307 308 309 309 309 307 306 306 305 305 303 302 301 300 299 297 295 295 295 294 293 294 293 293
311 311 312 310 309 307 306 306 306 305 304 304 303 302 301 301 301 302 303 305 306 307 308 307 307 306 305 305 305 304 302 300 299 299 297 295 294 294 293 292 293 293 293
312 312 310 312 311 309 307 308 307 308 306 305 304 303 301 300 299 299 300 303 304 306 308 307 306 307 306 305 304 304 300 295 299 296 297 296 295 295 295 294 295 295 295
312 312 310 310 309 308 309 305 305 305 305 306 305 302 302 300 300 301 304 303 304 305 307 307 307 307 306 307 306 301 291 289 296 292 298 297 296 295 295 295 295 295 296
Wind_Speed
10 9 9 9 7 7 6 6 6 3 5 5 7 6 6 6 6 6 6 5 4 2 1 3 5 3 2 2 2 1 1 2 2 3 1 4 3 5 4 2 3 2 4
11 9 10 10 8 7 7 7 6 6 5 7 5 5 6 5 6 6 6 5 6 5 6 4 5 2 5 3 2 3 3 2 3 3 1 3 3 4 5 4 4 3 2
6 8 8 8 9 9 8 7 7 7 6 6 6 6 7 7 6 6 6 6 6 6 5 5 6 4 5 4 4 3 3 2 2 3 3 2 2 4 3 2 2 2 4
5 1 5 8 10 10 10 9 8 7 7 7 7 7 7 7 6 6 6 6 6 6 6 6 6 6 6 5 4 5 4 4 3 2 2 2 2 4 4 4 3 2 4
6 3 3 3 5 8 9 8 8 7 8 8 7 7 6 6 5 7 6 6 6 6 6 6 6 7 7 6 2 4 4 3 3 3 3 3 3 4 7 5 4 3 3
4 5 2 1 4 5 9 9 7 8 7 7 7 7 6 5 8 9 7 6 6 6 6 6 5 6 5 3 4 1 2 4 3 3 3 4 4 4 4 5 5 4 4
5 4 5 5 3 4 9 8 9 9 7 7 7 7 7 7 10 11 10 5 5 6 6 5 4 4 6 5 4 9 8 7 2 2 4 3 3 1 1 5 7 6 4
6 6 8 6 3 3 4 8 7 6 9 7 7 7 6 4 6 7 6 5 4 5 5 4 5 4 6 7 6 5 5 4 2 3 4 4 3 4 3 2 3 5 4
10 10 7 6 3 3 2 9 4 5 4 4 4 5 5 5 8 8 2 2 4 4 0 1 4 5 5 10 9 8 6 6 8 13 12 9 11 14 8 2 1 4 2
4 6 5 6 2 1 4 10 2 3 3 4 5 5 8 7 8 7 3 0 2 2 1 1 6 2 6 8 8 10 8 6 6 4 3 6 8 10 17 9 3 1 2
3 4 2 2 6 7 3 3 1 5 6 6 6 5 5 3 3 1 2 3 3 1 2 1 3 7 5 7 8 9 6 8 8 6 5 5 6 7 6 7 7 6 3
4 4 5 6 5 5 7 5 6 5 4 4 5 4 3 5 10 8 6 1 3 4 3 2 2 7 8 7 7 15 15 8 5 5 4 3 4 4 4 4 7 8 7
5 6 6 7 5 4 5 4 6 5 3 1 3 3 3 2 4 9 8 7 8 5 3 6 9 9 9 10 12 12 9 5 4 4 3 3 2 3 2 3 3 4 4
6 8 6 7 7 6 6 4 5 4 3 2 4 3 3 1 3 1 3 5 10 8 8 4 7 8 8 5 5 4 4 3 2 4 3 3 3 2 2 1 2 3 3
6 6 6 5 6 6 7 4 4 4 4 3 3 3 3 2 1 2 4 4 4 5 5 3 3 3 3 3 3 4 4 3 3 2 2 2 2 2 2 3 3 3 2
6 4 4 4 5 5 5 4 11 8 8 9 6 4 1 3 3 6 8 9 9 5 3 3 2 2 2 2 3 3 2 4 3 3 3 3 3 3 1 0 1 2 4
7 5 4 4 4 4 3 3 4 4 7 9 8 7 5 7 6 8 9 8 5 5 3 3 3 3 2 2 1 2 3 2 3 2 2 2 2 1 1 1 2 3 3
4 6 4 4 4 3 4 4 3 3 2 1 8 6 6 7 6 6 4 4 3 3 2 2 3 3 3 2 2 2 2 1 1 2 2 2 3 2 2 2 2 3 3
4 4 4 4 4 4 4 4 4 4 3 2 1 3 4 6 5 3 4 2 1 2 2 2 2 3 2 2 2 2 2 2 1 1 0 0 1 1 2 3 3 4 5
3 6 5 4 3 4 4 5 4 3 3 3 3 3 3 2 2 3 2 1 2 2 3 3 3 4 4 4 3 2 2 2 2 1 1 0 0 0 3 3 3 3 2
4 3 7 4 4 4 3 4 5 5 4 4 4 5 8 4 5 4 4 4 4 3 3 4 4 4 3 4 4 3 3 2 3 3 3 2 3 2 3 3 2 4 5
4 5 3 3 4 5 5 4 5 6 5 5 5 4 11 4 4 4 4 4 4 5 4 5 4 5 5 5 5 4 4 4 3 3 2 3 3 3 3 3 3 2 2
3 4 4 5 5 5 4 5 5 5 5 5 5 5 5 5 5 5 5 5 5 5 4 5 5 4 4 5 5 5 5 5 5 5 5 5 4 3 3 3 3 2 3
3 3 4 4 5 5 5 5 5 7 6 6 6 5 5 5 6 6 6 5 3 4 4 5 5 7 6 5 4 5 5 5 5 6 7 5 5 4 3 2 3 4 3
4 3 2 2 4 5 5 6 6 5 5 5 5 5 5 5 5 6 5 5 5 5 6 6 6 8 9 10 9 9 8 10 8 8 5 6 6 7 4 3 4 4 3
4 3 2 3 3 5 5 5 5 3 4 5 6 6 7 7 6 6 5 5 5 4 5 5 6 9 10 8 10 11 9 11 9 10 7 6 6 5 4 5 6 3 4
Wind_Direction
197 207 191 186 187 184 185 192 192 217 193 175 172 175 202 213 208 203 215 213 198 220 205 232 261 270 281 216 224 99 47 139 181 301 95 114 122 146 117 116 119 107 115
192 195 212 191 184 186 196 187 190 205 198 199 194 203 205 217 199 195 215 211 218 227 239 233 250 292 294 278 214 180 161 176 163 211 219 148 143 154 154 149 159 130 115
213 189 203 207 195 203 206 203 189 198 208 207 185 211 211 216 223 222 214 221 218 219 224 234 256 246 266 257 244 206 189 204 213 155 216 186 113 151 142 160 127 124 121
32 144 206 231 214 201 201 210 208 192 189 209 203 209 215 219 217 219 213 216 226 226 227 229 237 239 245 262 256 232 214 187 188 176 211 221 177 154 156 160 170 148 153
87 7 54 343 281 221 200 200 202 197 201 201 205 219 225 217 221 220 220 222 226 240 237 234 239 234 218 196 184 223 218 217 204 196 211 196 184 159 198 175 168 146 186
151 185 174 309 358 280 226 205 198 201 200 195 203 209 216 222 225 211 205 223 229 224 237 241 235 216 218 222 225 224 210 210 229 208 237 202 214 202 163 176 152 159 210
202 218 217 248 287 316 250 205 198 197 187 207 209 200 217 222 221 218 209 223 239 228 214 229 247 225 197 182 131 112 75 51 36 215 244 236 256 174 213 170 188 187 206
189 208 229 233 210 270 313 226 185 179 188 190 205 210 208 225 248 229 226 223 240 244 230 210 215 214 186 175 161 114 71 35 17 77 94 72 23 329 263 264 216 144 82
199 213 207 227 225 276 299 275 225 205 178 169 162 206 200 92 63 51 330 237 270 276 90 311 239 191 199 167 150 138 123 105 83 90 89 78 61 45 32 177 26 157 127
235 235 244 247 223 57 2 223 170 121 125 123 106 101 121 125 107 101 101 161 237 185 127 60 18 250 192 181 155 152 152 172 151 121 57 48 48 44 50 59 358 193 107
247 226 156 118 76 79 106 9 229 104 108 89 83 63 58 56 66 25 107 169 241 237 156 30 5 349 303 259 164 170 169 139 129 110 86 63 42 44 42 34 47 63 63
113 98 97 94 99 101 96 87 20 43 91 109 108 71 23 29 21 22 34 35 153 131 132 113 80 53 50 57 90 116 107 110 114 105 95 72 66 48 41 56 66 64 52
105 85 79 68 48 73 76 82 78 47 31 89 96 95 74 65 50 35 37 45 74 89 102 120 117 94 77 79 95 92 99 114 114 102 95 75 69 85 81 74 85 113 108
98 96 75 79 69 22 54 22 96 79 115 87 92 110 104 106 103 59 46 57 64 86 101 65 76 62 68 81 81 67 88 95 118 125 127 120 125 103 96 82 115 156 149
94 91 94 92 92 74 51 13 57 65 339 87 124 103 118 169 165 97 106 106 102 96 94 77 57 51 48 63 67 70 72 66 88 75 99 121 118 158 199 194 226 181 137
93 78 85 85 87 99 101 73 37 55 43 32 53 120 115 58 139 114 107 108 112 124 89 95 77 81 111 117 97 75 85 117 120 139 148 153 168 174 174 299 306 189 157
116 119 112 119 113 130 124 125 119 52 68 64 57 57 74 132 125 120 121 118 121 112 115 142 142 140 143 113 118 145 147 142 141 157 161 198 203 219 166 158 123 115 103
123 140 132 133 140 159 147 138 146 178 183 103 47 70 53 86 89 93 80 113 94 76 97 140 139 133 160 171 149 135 120 145 198 186 184 193 193 148 141 121 114 148 115
165 164 156 149 156 170 140 142 142 136 139 133 111 46 80 77 73 34 360 59 76 98 135 148 169 167 172 162 163 153 152 163 189 157 212 215 124 119 103 116 107 95 114
228 192 153 157 175 171 158 148 136 153 165 185 201 200 161 128 160 217 231 203 222 212 189 198 205 179 175 181 181 181 177 174 194 201 228 102 210 186 168 148 147 132 145
175 206 175 165 169 191 205 198 179 168 196 196 217 207 186 182 194 204 213 223 228 235 228 201 194 194 189 181 177 186 199 206 205 208 198 203 170 117 132 130 136 131 136
201 192 206 209 186 180 205 221 196 181 188 203 218 216 179 214 218 217 222 230 219 224 227 177 184 193 191 189 189 187 194 218 223 217 218 155 156 138 127 131 147 143 140
175 197 204 227 213 230 201 189 192 191 195 202 202 191 180 206 230 230 224 229 222 226 197 170 172 196 197 198 194 186 184 211 208 183 172 168 161 154 153 157 161 161 172
189 210 244 267 191 196 203 218 217 208 184 186 190 198 197 205 220 227 223 213 191 210 183 171 179 183 188 196 199 200 200 196 176 182 170 164 170 173 169 179 182 202 201
206 206 211 290 207 196 202 206 204 202 188 179 203 203 209 202 214 231 229 207 195 192 199 194 195 195 198 198 197 201 209 190 178 171 170 170 181 187 191 196 198 211 224
224 244 248 237 209 191 198 210 217 195 186 188 200 205 204 204 209 217 233 222 217 214 219 215 218 216 206 212 214 211 206 201 188 187 175 176 186 196 194 220 227 220 238